{"data":{"norad_id":66251,"intl_designator":"2025-245T","name":"STARLINK-35485","alt_names":[],"object_type":"PAYLOAD","status":"ACTIVE","operator":null,"country":"US","launch_date":"2025-10-29","launch_site_code":"AFETR","launch_vehicle":null,"mission":null,"orbit_class":"UNKNOWN","rcs_meters":null,"size_class":null,"mass_kg":null,"dimensions":null,"purposes":["comms"],"wikipedia_slug":null,"has_3d_model":false,"image_url":null,"decayed_at":null,"tle_current":{"epoch":"2026-05-25T02:53:10.610016Z","epoch_age_seconds":65476,"freshness":"FRESH","line1":"1 66251U 25245T   26145.12026169  .00020257  00000+0  66258-3 0  9998","line2":"2 66251  53.1612 288.5054 0001325  90.3937 269.7216 15.31709341 32747","mean_motion":15.31709341,"eccentricity":0.0001325,"inclination_deg":53.1612,"raan_deg":288.5054,"arg_perigee_deg":90.3937,"mean_anomaly_deg":269.7216,"bstar":0.00066258,"rev_number":3274,"period_min":94.012614629605,"perigee_km":469.8046778198,"apogee_km":471.61962284464,"semimajor_km":6848.8491503322,"source":"CELESTRAK","updated_at":"2026-05-25T13:38:21.137089Z"}}}